Powrót do katalogu

TITAN 34D TRANSTAGE DEB

LostGTO
NORAD 23619·DEBRIS·🇺🇸 United States

Wystrzelony Sep 2, 1988 z Cape Canaveral Space Force Station

Loading…

TLE

NieaktualneSource: Space-Track

Epoka: Jun 22, 2026, 20:16 UTC

1 23619U 88077N   26173.84504531 -.00000548  00000-0  25493-2 0  9993
2 23619  26.4736 139.5296 7367199 233.8587  34.2120  2.01476526 10639

Śledź TITAN 34D TRANSTAGE DEB w czasie rzeczywistym z AllMySat

Download on the App Store